Showing default

GEESAT 5-05, 65554

Orbit data source: Space-Track

GEESAT 5-05, 65554 is a payload satellite owned by GeeSpace (CN) in LEO that was launched on Mon, 08 Sep 2025 UTC via a JIELONG-3 launch vehicle from the Yellow Sea Launch Area, China (YSLA). Payload-class satellites include a variety of spacecraft equipped with specific instruments for various scientific and technological missions. These include communications satellites like Starlink; space stations such as the ISS; scientific satellites like the Hubble; Earth observation satellites from companies like Planet Labs, Umbra, and HawkEye 360; GPS; miniature CubeSats for education and research; and military/defense satellites.

Loading next visibility...
Identifier
65554, 2025-201E
Orbit
LEO
Country
Flag of CNCN / PRC
Related business
Manufacturer
GWCG
Mission
Operational Commercial Navigation
Bus & Motor
GPS100, Unknown motor
Mass
130 kg wet, 130 kg dry
Launch date (UTC)
2025-09-08 (9 months ago)
Launch vehicle
JIELONG-3
Launch site
Yellow Sea Launch Area, China (YSLA)
Object type
Payload
Rocket body
Debris
Shape & HBR
Box + 2 Pan, 1.1 m
Radar Cross Section
0.833 m², Large (>1 m²)

Expand to show TLE details & history
Last TLE update: 1 day ago

TLE from 1 day ago
0 GEESAT 5-05
1 65554U 25201E   26170.86884233  .00001191  00000-0  16797-3 0  9998
2 65554  49.9836  26.6945 0010897 290.3287  69.6480 14.84159819 42193
Epoch: 2026-06-19T20:51Z
TLE epoch observation values (Epoch: 2026-06-19T20:51:07.977Z)
Latitude
-0.00002°
Longitude
165.81961°
Altitude
614.123 km
Speed
7.555 km/s
True Right ascension
01h 46m 46s
True Declination
0° 00' 00"
Sunlit
Object was in daylight at epoch
Visualization orbit readout
Latitude
Unknown
Longitude
Unknown
Altitude
Unknown
Speed
Unknown
Apparent Right ascension
Unknown
Apparent Declination
Unknown
Sunlit
N/A
Visualization observer readout
Local Sidereal Time
07:21:45
Azimuth
Unknown
Elevation
Unknown
Doppler factor
Unknown
Orbital elements
Apogee altitude
624.608 km
Perigee altitude
609.363 km
Semi-major axis
6,995.122 km
Eccentricity
0.00109
Inclination
49.9836°
RAAN
26.6945°
Arg. of periapsis
290.3287°
True anomaly
69.76513°
Mean anomaly
69.648°
Eccentric anomaly
69.70656°
Mean motion
3.7098 °/min
Orbital period
97.04 mins
BSTAR
0.00016797
Loading maneuver chart data...
Computing Atmospheric mass density...
Loading historical data...
Loading historical data...
Loading historical data...
Loading historical data...
Loading historical data...
Loading historical data...
Loading historical data...

Documentation

Showing up to 5 results
|